DMSP 5D-2 F13 DEB

Satellite information

Favourite Embed

Satellite Type and Status

DEBRISDECAYED

Key statistics

Satellite DMSP 5D-2 F13 DEB at a glance.

Uptime

10858

Days in orbit

Revolutions

≈ 14.3

Per day

Orbit

SSO

Sun Synchronous Orbit

Inclination

98.6

Latest

Satellite identification and parameters

Extended collection of information and parameters for DMSP 5D-2 F13 DEB.

Object identification

Identified? True

Debris? True

Object name: DMSP 5D-2 F13 DEB

International designator: 1995-015CF

Object number (NORAD): 40492

Object ID (CCSDS): 40492

Country: UNITED STATES OF AMERICA (US)

Current information (Y/N): Y

RCS size: SMALL

Orbital parameters

Decay date: Dec. 14, 2024

Period: 100.538 minutes

Inclination: 98.6489 deg

SMA: 7162.192 km

Apoapsis: 803.157 km

Periapsis: 764.958 km

RAAN: 73.7958 deg

Eccentricy: 0.0026667

Argument of periapsis: 319.3331 deg

Mean anomaly: 40.5861 deg

Mean motion: 14.3229933 rev/day

Mean motion (dot): 0.00008783 rev/day2

B* drag term: 0.0032539 1/REarth

Two-line elements (TLE)

Creation date: Feb. 11, 2024, 5:15 p.m.

Reference frame: TEME

Reference center: EARTH

Epoch: Feb. 11, 2024, 7:06 a.m. UTC

TLE line 0: 0 DMSP 5D-2 F13 DEB

TLE line 1: 1 40492U 95015CF 24042.29584706 .00008783 00000-0 32539-2 0 9992

TLE line 2: 2 40492 98.6489 73.7958 0026667 319.3331 40.5861 14.32299330463489

Live tracking on map

Satellite DMSP 5D-2 F13 DEB has decayed and is no longer in orbit. No tracking available.

In-orbit conjunctions

Satellite DMSP 5D-2 F13 DEB has decayed and is no longer in orbit. No conjunctions available.

Associated space launch

Military meteorological satellite

DMSP 5D-2 F13 DEB was lifted into orbit during the mission ‘Atlas E | DMSP-5D2 F13’, on board a Atlas E space rocket.

The launch took place on March 24, 1995, 2:05 p.m. from Space Launch Complex 3W.

For more information about the launch, click the button.

Launch to space Atlas E | DMSP-5D2 F13
Atlas E | DMSP-5D2 F13

Agency: N/A

Status: Launch Successful

Launch date: March 24, 1995, 2:05 p.m. UTC

Rocket: Atlas E

Launch pad: Space Launch Complex 3W

Location: Vandenberg SFB, CA, USA

...

Latest news about this satellite

There are no fresh news available about this satellite. Check back as we update our databases every day.


Newsletter sign-up

Weekly statistics, charts and insights to help you stay on top of the space industry.